Location: Geroldsau
(48.7259°N, 8.2466°E)
Time: 00:58:56
(UTC+00:00)

USA 305 - Visible Passes

Search period start: 24 October 2021 00:00
Search period end: 03 November 2021 00:00
Orbit: 558 x 576 km, 54.0° (Epoch: 22 October)

Date Brightness Start Highest point End Pass type
(mag) Time Alt. Az. Time Alt. Az. Time Alt. Az.
24 Oct 4.3 04:04:00 17° SSW 04:06:37 33° SE 04:10:25 10° ENE visible
25 Oct 3.7 04:04:53 27° SSW 04:06:47 46° SE 04:10:49 10° ENE visible
26 Oct 6.0 02:29:35 11° ESE 02:29:35 11° ESE 02:29:49 10° E visible
26 Oct 3.1 04:05:38 39° SSW 04:06:58 63° SE 04:11:08 10° ENE visible
27 Oct 5.9 02:30:12 13° E 02:30:12 13° E 02:30:49 10° E visible
27 Oct 2.8 04:06:15 53° SW 04:07:12 83° SSE 04:11:25 10° ENE visible
28 Oct 5.9 02:30:44 14° E 02:30:44 14° E 02:31:25 10° ENE visible
28 Oct 2.8 04:06:46 60° W 04:07:27 77° NNW 04:11:40 10° ENE visible
29 Oct 5.9 02:31:11 14° ENE 02:31:11 14° ENE 02:31:51 10° ENE visible
29 Oct 2.9 04:07:13 57° WNW 04:07:43 62° NNW 04:11:54 10° ENE visible
30 Oct 5.9 02:31:34 14° ENE 02:31:34 14° ENE 02:32:11 10° ENE visible
30 Oct 3.1 04:07:36 50° NW 04:08:01 52° NNW 04:12:09 10° ENE visible
31 Oct 5.9 02:31:54 13° ENE 02:31:54 13° ENE 02:32:26 10° ENE visible
31 Oct 3.3 04:07:56 44° NNW 04:08:19 46° NNW 04:12:23 10° ENE visible
01 Nov 6.0 02:32:12 13° ENE 02:32:12 13° ENE 02:32:40 10° ENE visible
01 Nov 3.5 04:08:13 40° NNW 04:08:39 42° N 04:12:39 10° ENE visible
02 Nov 6.0 02:32:29 12° ENE 02:32:29 12° ENE 02:32:53 10° ENE visible
02 Nov 3.6 04:08:30 38° NNW 04:08:58 40° N 04:12:56 10° ENE visible
